Weather History for Wainwright, AK

Change the Weather History Date:

Friday, April 12, 2013

  Actual Average (PABR) Record (PABR)
Temperature  
Mean Temperature -8 °F -1 °F  
Max Temperature 1 °F - 37 °F (1957)
Min Temperature -18 °F -8 °F -31 °F (1949)
Degree Days  
Heating Degree Days 74 66  
Month to date heating degree days 831  
Since 1 July heating degree days 16083  
Cooling Degree Days 0    
Month to date cooling degree days  
Year to date cooling degree days  
Moisture  
Dew Point -15 °F    
Average Humidity 71    
Maximum Humidity 82    
Minimum Humidity 60    
Precipitation  
Precipitation 0.00 in 0.00 in 0.12 in (1965)
Month to date precipitation 0.06  
Year to date precipitation 0.42  
Snow  
Snow 0.00 in 0.10 in 1.60 in (2002)
Month to date snowfall 1.2  
Since 1 July snowfall 32.3  
Snow Depth -    
Sea Level Pressure  
Sea Level Pressure 30.39 in    
Wind  
Wind Speed 8 mph (ESE)    
Max Wind Speed 15 mph    
Max Gust Speed -    
Visibility 10 miles    
Events      
T = Trace of Precipitation, MM = Missing Value Source: NWS Daily Summary

Daily Weather History Graph

Daily Weather History Graph

Search for Another Location

Airport:

Trip Planner

Search our weather history database for the weather conditions in past years. The results will help you decide how hot, cold, wet, or windy it might be!

Date:

Astronomy

Apr. 12, 2013 Rise Set
Actual Time 6:43 AM AKDT 10:40 PM AKDT
Civil Twilight 5:21 AM AKDT 12:04 AM AKDT
Nautical Twilight 3:13 AM AKDT 2:08 AM AKDT
Astronomical Twilight Sun does not rise Sun does not rise
Moon 6:16 AM AKDT (4/12) 2:01 AM AKDT (4/12)
Length of Visible Light 18h 42m
Length of Day
15h 57m
Waxing Crescent, 6% of the Moon is Illuminated
Apr 12
Waxing Crescent
Apr 18
First Quarter
Apr 25
Full
May 2
Last Quarter
May 9
New

Hourly Weather History & Observations

Time (AKDT) Temp. Windchill Dew Point Humidity Pressure Visibility Wind Dir Wind Speed Gust Speed Precip Events Conditions
12:53 AM -16.1 °F -30.6 °F -23.1 °F 71% 30.45 in 10.0 mi SE 5.8 mph - N/A   Clear
1:53 AM -17.0 °F -29.7 °F -22.0 °F 78% 30.44 in 10.0 mi SE 4.6 mph - N/A   Clear
2:53 AM -17.0 °F -31.7 °F -23.1 °F 74% 30.44 in 10.0 mi SE 5.8 mph - N/A   Clear
3:53 AM -17.0 °F -34.8 °F -22.0 °F 78% 30.44 in 10.0 mi SE 8.1 mph - N/A   Clear
4:53 AM -18.0 °F -37.5 °F -23.1 °F 78% 30.43 in 10.0 mi SE 9.2 mph - N/A   Clear
5:53 AM -17.0 °F -29.7 °F -20.9 °F 82% 30.43 in 10.0 mi SE 4.6 mph - N/A   Clear
6:53 AM -16.1 °F -28.6 °F -20.0 °F 82% 30.43 in 10.0 mi ESE 4.6 mph - N/A   Clear
7:53 AM -17.0 °F -31.7 °F -20.9 °F 82% 30.42 in 10.0 mi ESE 5.8 mph - N/A   Clear
8:53 AM -13.0 °F -27.0 °F -18.9 °F 75% 30.41 in 10.0 mi ESE 5.8 mph - N/A   Clear
9:53 AM -11.0 °F -22.8 °F -17.0 °F 75% 30.40 in 10.0 mi East 4.6 mph - N/A   Clear
10:53 AM -9.0 °F -22.3 °F -16.1 °F 71% 30.41 in 10.0 mi East 5.8 mph - N/A   Clear
11:53 AM -6.0 °F -24.6 °F -14.1 °F 68% 30.40 in 10.0 mi East 11.5 mph - N/A   Clear
12:53 PM -0.9 °F -19.1 °F -11.0 °F 62% 30.39 in 10.0 mi ESE 12.7 mph - N/A   Clear
1:53 PM 1.0 °F -14.0 °F -9.9 °F 60% 30.38 in 10.0 mi SE 9.2 mph - N/A   Clear
2:53 PM 1.0 °F -14.9 °F -9.0 °F 63% 30.38 in 10.0 mi SE 10.4 mph - N/A   Clear
3:53 PM 1.9 °F -15.5 °F -9.0 °F 60% 30.38 in 10.0 mi ESE 12.7 mph - N/A   Clear
4:53 PM 1.9 °F -14.7 °F -6.0 °F 69% 30.38 in 10.0 mi ESE 11.5 mph - N/A   Clear
5:53 PM 1.9 °F -15.5 °F -7.1 °F 66% 30.37 in 10.0 mi ESE 12.7 mph - N/A   Clear
6:53 PM 1.9 °F -14.7 °F -7.1 °F 66% 30.37 in 10.0 mi ESE 11.5 mph - N/A   Clear
7:53 PM -0.0 °F -18.0 °F -8.0 °F 69% 30.36 in 10.0 mi ESE 12.7 mph - N/A   Clear
8:53 PM -0.9 °F -19.1 °F -9.9 °F 66% 30.35 in 10.0 mi ESE 12.7 mph - N/A   Clear
9:53 PM -4.0 °F -19.0 °F -11.9 °F 69% 30.34 in 10.0 mi SE 8.1 mph - N/A   Clear
10:53 PM -4.0 °F -24.5 °F -13.0 °F 65% 30.34 in 10.0 mi ESE 15.0 mph - N/A   Clear
11:53 PM -5.1 °F -23.5 °F -14.1 °F 65% 30.34 in 10.0 mi ESE 11.5 mph - N/A   Clear